Year,Month,Day,Hour,Minute,Value (Times are PST for temperature in C)
2020,11,06,00,00,4.00
2020,11,06,00,01,4.00
2020,11,06,00,02,4.00
2020,11,06,00,03,3.90
2020,11,06,00,04,3.90
2020,11,06,00,05,3.90
2020,11,06,00,06,3.90
2020,11,06,00,07,3.90
2020,11,06,00,08,3.90
2020,11,06,00,09,3.90
2020,11,06,00,10,4.00
2020,11,06,00,11,3.90
2020,11,06,00,12,3.90
2020,11,06,00,13,3.90
2020,11,06,00,14,3.90
2020,11,06,00,15,3.90
2020,11,06,00,16,4.00
2020,11,06,00,17,4.00
2020,11,06,00,18,4.00
2020,11,06,00,19,4.00
2020,11,06,00,20,4.00
2020,11,06,00,21,4.10
2020,11,06,00,22,4.10
2020,11,06,00,23,4.10
2020,11,06,00,24,4.10
2020,11,06,00,25,4.10
2020,11,06,00,26,4.10
2020,11,06,00,27,4.10
2020,11,06,00,28,4.00
2020,11,06,00,29,4.10
2020,11,06,00,30,4.10
2020,11,06,00,31,4.10
2020,11,06,00,32,4.10
2020,11,06,00,33,4.10
2020,11,06,00,34,4.20
2020,11,06,00,35,4.20
2020,11,06,00,36,4.20
2020,11,06,00,37,4.20
2020,11,06,00,38,4.30
2020,11,06,00,39,4.20
2020,11,06,00,40,4.30
2020,11,06,00,41,4.30
2020,11,06,00,42,4.30
2020,11,06,00,43,4.30
2020,11,06,00,44,4.30
2020,11,06,00,45,4.30
2020,11,06,00,46,4.30
2020,11,06,00,47,4.30
2020,11,06,00,48,4.20
2020,11,06,00,49,4.20
2020,11,06,00,50,4.20
2020,11,06,00,51,4.20
2020,11,06,00,52,4.20
2020,11,06,00,53,4.20
2020,11,06,00,54,4.20
2020,11,06,00,55,4.20
2020,11,06,00,56,4.20
2020,11,06,00,57,4.20
2020,11,06,00,58,4.20
2020,11,06,00,59,4.20
2020,11,06,01,00,4.20
2020,11,06,01,01,4.20
2020,11,06,01,02,4.20
2020,11,06,01,03,4.20
2020,11,06,01,04,4.20
2020,11,06,01,05,4.20
2020,11,06,01,06,4.20
2020,11,06,01,07,4.20
2020,11,06,01,08,4.20
2020,11,06,01,09,4.20
2020,11,06,01,10,4.10
2020,11,06,01,11,4.10
2020,11,06,01,12,4.10
2020,11,06,01,13,4.10
2020,11,06,01,14,4.00
2020,11,06,01,15,4.00
2020,11,06,01,16,4.00
2020,11,06,01,17,4.00
2020,11,06,01,18,4.00
2020,11,06,01,19,4.00
2020,11,06,01,20,3.90
2020,11,06,01,21,3.90
2020,11,06,01,22,3.90
2020,11,06,01,23,3.90
2020,11,06,01,24,3.90
2020,11,06,01,25,3.90
2020,11,06,01,26,3.90
2020,11,06,01,27,3.90
2020,11,06,01,28,3.80
2020,11,06,01,29,3.80
2020,11,06,01,30,3.80
2020,11,06,01,31,3.80
2020,11,06,01,32,3.90
2020,11,06,01,33,3.80
2020,11,06,01,34,3.90
2020,11,06,01,35,3.90
2020,11,06,01,36,3.80
2020,11,06,01,37,3.80
2020,11,06,01,38,3.90
2020,11,06,01,39,3.90
2020,11,06,01,40,3.90
2020,11,06,01,41,3.90
2020,11,06,01,42,3.90
2020,11,06,01,43,3.90
2020,11,06,01,44,3.90
2020,11,06,01,45,3.90
2020,11,06,01,46,3.90
2020,11,06,01,47,3.90
2020,11,06,01,48,3.90
2020,11,06,01,49,3.90
2020,11,06,01,50,3.90
2020,11,06,01,51,3.90
2020,11,06,01,52,3.90
2020,11,06,01,53,4.00
2020,11,06,01,54,4.00
2020,11,06,01,55,4.10
2020,11,06,01,56,4.10
2020,11,06,01,57,4.10
2020,11,06,01,58,4.20
2020,11,06,01,59,4.20
2020,11,06,02,00,4.20
2020,11,06,02,01,4.20
2020,11,06,02,02,4.20
2020,11,06,02,03,4.30
2020,11,06,02,04,4.30
2020,11,06,02,05,4.30
2020,11,06,02,06,4.30
2020,11,06,02,07,4.30
2020,11,06,02,08,4.30
2020,11,06,02,09,4.30
2020,11,06,02,10,4.30
2020,11,06,02,11,4.30
2020,11,06,02,12,4.30
2020,11,06,02,13,4.20
2020,11,06,02,14,4.20
2020,11,06,02,15,4.20
2020,11,06,02,16,4.20
2020,11,06,02,17,4.20
2020,11,06,02,18,4.20
2020,11,06,02,19,4.20
2020,11,06,02,20,4.20
2020,11,06,02,21,4.20
2020,11,06,02,22,4.30
2020,11,06,02,23,4.30
2020,11,06,02,24,4.30
2020,11,06,02,25,4.30
2020,11,06,02,26,4.30
2020,11,06,02,27,4.30
2020,11,06,02,28,4.30
2020,11,06,02,29,4.30
2020,11,06,02,30,4.20
2020,11,06,02,31,4.20
2020,11,06,02,32,4.20
2020,11,06,02,33,4.20
2020,11,06,02,34,4.20
2020,11,06,02,35,4.20
2020,11,06,02,36,4.20
2020,11,06,02,37,4.20
2020,11,06,02,38,4.20
2020,11,06,02,39,4.20
2020,11,06,02,40,4.20
2020,11,06,02,41,4.20
2020,11,06,02,42,4.20
2020,11,06,02,43,4.20
2020,11,06,02,44,4.20
2020,11,06,02,45,4.20
2020,11,06,02,46,4.10
2020,11,06,02,47,4.10
2020,11,06,02,48,4.10
2020,11,06,02,49,4.10
2020,11,06,02,50,4.10
2020,11,06,02,51,4.10
2020,11,06,02,52,4.10
2020,11,06,02,53,4.10
2020,11,06,02,54,4.10
2020,11,06,02,55,4.10
2020,11,06,02,56,4.10
2020,11,06,02,57,4.10
2020,11,06,02,58,4.10
2020,11,06,02,59,4.10
2020,11,06,03,00,4.10
2020,11,06,03,01,4.10
2020,11,06,03,02,4.10
2020,11,06,03,03,4.20
2020,11,06,03,04,4.20
2020,11,06,03,05,4.20
2020,11,06,03,06,4.10
2020,11,06,03,07,4.10
2020,11,06,03,08,4.10
2020,11,06,03,09,4.10
2020,11,06,03,10,4.10
2020,11,06,03,11,4.10
2020,11,06,03,12,4.10
2020,11,06,03,13,4.10
2020,11,06,03,14,4.10
2020,11,06,03,15,4.10
2020,11,06,03,16,4.10
2020,11,06,03,17,4.10
2020,11,06,03,18,4.10
2020,11,06,03,19,4.10
2020,11,06,03,20,4.10
2020,11,06,03,21,4.10
2020,11,06,03,22,4.10
2020,11,06,03,23,4.10
2020,11,06,03,24,4.10
2020,11,06,03,25,4.10
2020,11,06,03,26,4.10
2020,11,06,03,27,4.10
2020,11,06,03,28,4.10
2020,11,06,03,29,4.10
2020,11,06,03,30,4.20
2020,11,06,03,31,4.20
2020,11,06,03,32,4.10
2020,11,06,03,33,4.10
2020,11,06,03,34,4.10
2020,11,06,03,35,4.10
2020,11,06,03,36,4.10
2020,11,06,03,37,4.10
2020,11,06,03,38,4.10
2020,11,06,03,39,4.10
2020,11,06,03,40,4.10
2020,11,06,03,41,4.00
2020,11,06,03,42,4.00
2020,11,06,03,43,4.00
2020,11,06,03,44,4.00
2020,11,06,03,45,4.10
2020,11,06,03,46,4.10
2020,11,06,03,47,4.10
2020,11,06,03,48,4.10
2020,11,06,03,49,4.10
2020,11,06,03,50,4.10
2020,11,06,03,51,4.10
2020,11,06,03,52,4.10
2020,11,06,03,53,4.10
2020,11,06,03,54,4.10
2020,11,06,03,55,4.10
2020,11,06,03,56,4.10
2020,11,06,03,57,4.10
2020,11,06,03,58,4.10
2020,11,06,03,59,4.10
2020,11,06,04,00,4.10
2020,11,06,04,01,4.10
2020,11,06,04,02,4.10
2020,11,06,04,03,4.10
2020,11,06,04,04,4.10
2020,11,06,04,05,4.20
2020,11,06,04,06,4.10
2020,11,06,04,07,4.10
2020,11,06,04,08,4.10
2020,11,06,04,09,4.10
2020,11,06,04,10,4.10
2020,11,06,04,11,4.10
2020,11,06,04,12,4.10
2020,11,06,04,13,4.10
2020,11,06,04,14,4.00
2020,11,06,04,15,4.00
2020,11,06,04,16,4.00
2020,11,06,04,17,4.00
2020,11,06,04,18,4.00
2020,11,06,04,19,3.90
2020,11,06,04,20,3.90
2020,11,06,04,21,3.90
2020,11,06,04,22,3.90
2020,11,06,04,23,3.90
2020,11,06,04,24,3.90
2020,11,06,04,25,3.90
2020,11,06,04,26,3.90
2020,11,06,04,27,3.90
2020,11,06,04,28,3.90
2020,11,06,04,29,3.90
2020,11,06,04,30,3.90
2020,11,06,04,31,3.90
2020,11,06,04,32,3.90
2020,11,06,04,33,3.90
2020,11,06,04,34,3.90
2020,11,06,04,35,3.90
2020,11,06,04,36,4.00
2020,11,06,04,37,4.00
2020,11,06,04,38,4.10
2020,11,06,04,39,4.10
2020,11,06,04,40,4.10
2020,11,06,04,41,4.10
2020,11,06,04,42,4.10
2020,11,06,04,43,4.10
2020,11,06,04,44,4.10
2020,11,06,04,45,4.10
2020,11,06,04,46,4.20
2020,11,06,04,47,4.10
2020,11,06,04,48,4.10
2020,11,06,04,49,4.10
2020,11,06,04,50,4.10
2020,11,06,04,51,4.10
2020,11,06,04,52,4.10
2020,11,06,04,53,4.10
2020,11,06,04,54,4.10
2020,11,06,04,55,4.10
2020,11,06,04,56,4.20
2020,11,06,04,57,4.20
2020,11,06,04,58,4.20
2020,11,06,04,59,4.20
2020,11,06,05,00,4.20
2020,11,06,05,01,4.20
2020,11,06,05,02,4.30
2020,11,06,05,03,4.30
2020,11,06,05,04,4.30
2020,11,06,05,05,4.20
2020,11,06,05,06,4.20
2020,11,06,05,07,4.20
2020,11,06,05,08,4.20
2020,11,06,05,09,4.20
2020,11,06,05,10,4.10
2020,11,06,05,11,4.10
2020,11,06,05,12,4.10
2020,11,06,05,13,4.10
2020,11,06,05,14,4.10
2020,11,06,05,15,4.10
2020,11,06,05,16,4.10
2020,11,06,05,17,4.10
2020,11,06,05,18,4.10
2020,11,06,05,19,4.10
2020,11,06,05,20,4.10
2020,11,06,05,21,4.10
2020,11,06,05,22,4.10
2020,11,06,05,23,4.10
2020,11,06,05,24,4.10
2020,11,06,05,25,4.00
2020,11,06,05,26,4.00
2020,11,06,05,27,4.00
2020,11,06,05,28,4.00
2020,11,06,05,29,4.00
2020,11,06,05,30,4.00
2020,11,06,05,31,4.00
2020,11,06,05,32,4.00
2020,11,06,05,33,4.00
2020,11,06,05,34,4.00
2020,11,06,05,35,4.00
2020,11,06,05,36,4.00
2020,11,06,05,37,4.00
2020,11,06,05,38,4.00
2020,11,06,05,39,4.00
2020,11,06,05,40,4.00
2020,11,06,05,41,4.00
2020,11,06,05,42,4.10
2020,11,06,05,43,4.10
2020,11,06,05,44,4.10
2020,11,06,05,45,4.10
2020,11,06,05,46,4.10
2020,11,06,05,47,4.10
2020,11,06,05,48,4.20
2020,11,06,05,49,4.20
2020,11,06,05,50,4.20
2020,11,06,05,51,4.20
2020,11,06,05,52,4.20
2020,11,06,05,53,4.20
2020,11,06,05,54,4.20
2020,11,06,05,55,4.30
2020,11,06,05,56,4.20
2020,11,06,05,57,4.20
2020,11,06,05,58,4.20
2020,11,06,05,59,4.20
2020,11,06,06,00,4.20
2020,11,06,06,01,4.20
2020,11,06,06,02,4.30
2020,11,06,06,03,4.30
2020,11,06,06,04,4.30
2020,11,06,06,05,4.30
2020,11,06,06,06,4.30
2020,11,06,06,07,4.30
2020,11,06,06,08,4.30
2020,11,06,06,09,4.20
2020,11,06,06,10,4.20
2020,11,06,06,11,4.20
2020,11,06,06,12,4.20
2020,11,06,06,13,4.20
2020,11,06,06,14,4.20
2020,11,06,06,15,4.20
2020,11,06,06,16,4.10
2020,11,06,06,17,4.10
2020,11,06,06,18,4.10
2020,11,06,06,19,4.10
2020,11,06,06,20,4.10
2020,11,06,06,21,4.10
2020,11,06,06,22,4.10
2020,11,06,06,23,4.10
2020,11,06,06,24,4.00
2020,11,06,06,25,4.00
2020,11,06,06,26,4.00
2020,11,06,06,27,4.00
2020,11,06,06,28,4.00
2020,11,06,06,29,3.90
2020,11,06,06,30,3.90
2020,11,06,06,31,3.90
2020,11,06,06,32,4.00
2020,11,06,06,33,4.00
2020,11,06,06,34,4.00
2020,11,06,06,35,4.00
2020,11,06,06,36,4.00
2020,11,06,06,37,4.00
2020,11,06,06,38,4.00
2020,11,06,06,39,4.00
2020,11,06,06,40,4.00
2020,11,06,06,41,4.00
2020,11,06,06,42,4.00
2020,11,06,06,43,4.00
2020,11,06,06,44,4.00
2020,11,06,06,45,4.00
2020,11,06,06,46,4.00
2020,11,06,06,47,4.00
2020,11,06,06,48,3.90
2020,11,06,06,49,3.90
2020,11,06,06,50,3.90
2020,11,06,06,51,3.80
2020,11,06,06,52,3.80
2020,11,06,06,53,3.80
2020,11,06,06,54,3.80
2020,11,06,06,55,3.80
2020,11,06,06,56,3.80
2020,11,06,06,57,3.80
2020,11,06,06,58,3.80
2020,11,06,06,59,3.80
2020,11,06,07,00,3.80
2020,11,06,07,01,3.80
2020,11,06,07,02,3.80
2020,11,06,07,03,3.80
2020,11,06,07,04,3.80
2020,11,06,07,05,3.80
2020,11,06,07,06,3.80
2020,11,06,07,07,3.80
2020,11,06,07,08,3.80
2020,11,06,07,09,3.80
2020,11,06,07,10,3.80
2020,11,06,07,11,3.80
2020,11,06,07,12,3.80
2020,11,06,07,13,3.80
2020,11,06,07,14,3.80
2020,11,06,07,15,3.80
2020,11,06,07,16,3.80
2020,11,06,07,17,3.80
2020,11,06,07,18,3.80
2020,11,06,07,19,3.80
2020,11,06,07,20,3.80
2020,11,06,07,21,3.80
2020,11,06,07,22,3.80
2020,11,06,07,23,3.80
2020,11,06,07,24,3.80
2020,11,06,07,25,3.70
2020,11,06,07,26,3.80
2020,11,06,07,27,3.70
2020,11,06,07,28,3.70
2020,11,06,07,29,3.70
2020,11,06,07,30,3.80
2020,11,06,07,31,3.80
2020,11,06,07,32,3.80
2020,11,06,07,33,3.80
2020,11,06,07,34,3.80
2020,11,06,07,35,3.80
2020,11,06,07,36,3.80
2020,11,06,07,37,3.80
2020,11,06,07,38,3.80
2020,11,06,07,39,3.80
2020,11,06,07,40,3.80
2020,11,06,07,41,3.80
2020,11,06,07,42,3.80
2020,11,06,07,43,3.80
2020,11,06,07,44,3.80
2020,11,06,07,45,3.80
2020,11,06,07,46,3.80
2020,11,06,07,47,3.80
2020,11,06,07,48,3.80
2020,11,06,07,49,3.80
2020,11,06,07,50,3.90
2020,11,06,07,51,3.90
2020,11,06,07,52,3.90
2020,11,06,07,53,3.90
2020,11,06,07,54,3.90
2020,11,06,07,55,3.90
2020,11,06,07,56,3.90
2020,11,06,07,57,3.90
2020,11,06,07,58,3.90
2020,11,06,07,59,3.90
2020,11,06,08,00,3.90
2020,11,06,08,01,3.90
2020,11,06,08,02,3.90
2020,11,06,08,03,3.90
2020,11,06,08,04,4.00
2020,11,06,08,05,4.00
2020,11,06,08,06,4.00
2020,11,06,08,07,4.00
2020,11,06,08,08,4.10
2020,11,06,08,09,4.10
2020,11,06,08,10,4.10
2020,11,06,08,11,4.10
2020,11,06,08,12,4.10
2020,11,06,08,13,4.20
2020,11,06,08,14,4.20
2020,11,06,08,15,4.20
2020,11,06,08,16,4.20
2020,11,06,08,17,4.30
2020,11,06,08,18,4.30
2020,11,06,08,19,4.30
2020,11,06,08,20,4.30
2020,11,06,08,21,4.30
2020,11,06,08,22,4.30
2020,11,06,08,23,4.30
2020,11,06,08,24,4.30
2020,11,06,08,25,4.40
2020,11,06,08,26,4.40
2020,11,06,08,27,4.40
2020,11,06,08,28,4.40
2020,11,06,08,29,4.40
2020,11,06,08,30,4.40
2020,11,06,08,31,4.40
2020,11,06,08,32,4.40
2020,11,06,08,33,4.40
2020,11,06,08,34,4.40
2020,11,06,08,35,4.50
2020,11,06,08,36,4.50
2020,11,06,08,37,4.50
2020,11,06,08,38,4.50
2020,11,06,08,39,4.60
2020,11,06,08,40,4.60
2020,11,06,08,41,4.60
2020,11,06,08,42,4.60
2020,11,06,08,43,4.70
2020,11,06,08,44,4.70
2020,11,06,08,45,4.70
2020,11,06,08,46,4.70
2020,11,06,08,47,4.70
2020,11,06,08,48,4.70
2020,11,06,08,49,4.70
2020,11,06,08,50,4.70
2020,11,06,08,51,4.80
2020,11,06,08,52,4.80
2020,11,06,08,53,4.80
2020,11,06,08,54,4.80
2020,11,06,08,55,4.80
2020,11,06,08,56,4.80
2020,11,06,08,57,4.90
2020,11,06,08,58,4.90
2020,11,06,08,59,4.90
2020,11,06,09,00,4.90
2020,11,06,09,01,4.90
2020,11,06,09,02,5.00
2020,11,06,09,03,5.00
2020,11,06,09,04,5.00
2020,11,06,09,05,5.10
2020,11,06,09,06,5.10
2020,11,06,09,07,5.10
2020,11,06,09,08,5.10
2020,11,06,09,09,5.20
2020,11,06,09,10,5.20
2020,11,06,09,11,5.20
2020,11,06,09,12,5.20
2020,11,06,09,13,5.20
2020,11,06,09,14,5.30
2020,11,06,09,15,5.30
2020,11,06,09,16,5.30
2020,11,06,09,17,5.40
2020,11,06,09,18,5.40
2020,11,06,09,19,5.40
2020,11,06,09,20,5.40
2020,11,06,09,21,5.40
2020,11,06,09,22,5.40
2020,11,06,09,23,5.50
2020,11,06,09,24,5.60
2020,11,06,09,25,5.60
2020,11,06,09,26,5.60
2020,11,06,09,27,5.60
2020,11,06,09,28,5.70
2020,11,06,09,29,5.70
2020,11,06,09,30,5.70
2020,11,06,09,31,5.70
2020,11,06,09,32,5.80
2020,11,06,09,33,5.80
2020,11,06,09,34,5.80
2020,11,06,09,35,5.80
2020,11,06,09,36,5.70
2020,11,06,09,37,5.80
2020,11,06,09,38,5.80
2020,11,06,09,39,5.80
2020,11,06,09,40,5.80
2020,11,06,09,41,5.90
2020,11,06,09,42,5.90
2020,11,06,09,43,5.90
2020,11,06,09,44,5.90
2020,11,06,09,45,5.90
2020,11,06,09,46,6.00
2020,11,06,09,47,6.00
2020,11,06,09,48,6.00
2020,11,06,09,49,6.10
2020,11,06,09,50,6.10
2020,11,06,09,51,6.10
2020,11,06,09,52,6.10
2020,11,06,09,53,6.10
2020,11,06,09,54,6.10
2020,11,06,09,55,6.10
2020,11,06,09,56,6.20
2020,11,06,09,57,6.20
2020,11,06,09,58,6.20
2020,11,06,09,59,6.20
2020,11,06,10,00,6.20
2020,11,06,10,01,6.30
2020,11,06,10,02,6.30
2020,11,06,10,03,6.30
2020,11,06,10,04,6.30
2020,11,06,10,05,6.30
2020,11,06,10,06,6.30
2020,11,06,10,07,6.40
2020,11,06,10,08,6.50
2020,11,06,10,09,6.50
2020,11,06,10,10,6.50
2020,11,06,10,11,6.50
2020,11,06,10,12,6.50
2020,11,06,10,13,6.50
2020,11,06,10,14,6.50
2020,11,06,10,15,6.50
2020,11,06,10,16,6.50
2020,11,06,10,17,6.60
2020,11,06,10,18,6.60
2020,11,06,10,19,6.70
2020,11,06,10,20,6.60
2020,11,06,10,21,6.60
2020,11,06,10,22,6.60
2020,11,06,10,23,6.60
2020,11,06,10,24,6.50
2020,11,06,10,25,6.60
2020,11,06,10,26,6.60
2020,11,06,10,27,6.70
2020,11,06,10,28,6.70
2020,11,06,10,29,6.70
2020,11,06,10,30,6.70
2020,11,06,10,31,6.70
2020,11,06,10,32,6.70
2020,11,06,10,33,6.70
2020,11,06,10,34,6.80
2020,11,06,10,35,6.80
2020,11,06,10,36,6.80
2020,11,06,10,37,6.80
2020,11,06,10,38,6.80
2020,11,06,10,39,6.80
2020,11,06,10,40,6.80
2020,11,06,10,41,6.80
2020,11,06,10,42,6.90
2020,11,06,10,43,6.90
2020,11,06,10,44,6.90
2020,11,06,10,45,6.90
2020,11,06,10,46,7.00
2020,11,06,10,47,7.00
2020,11,06,10,48,7.00
2020,11,06,10,49,7.00
2020,11,06,10,50,7.00
2020,11,06,10,51,7.10
2020,11,06,10,52,7.10
2020,11,06,10,53,7.10
2020,11,06,10,54,7.20
2020,11,06,10,55,7.20
2020,11,06,10,56,7.20
2020,11,06,10,57,7.20
2020,11,06,10,58,7.20
2020,11,06,10,59,7.30
2020,11,06,11,00,7.30
2020,11,06,11,01,7.30
2020,11,06,11,02,7.30
2020,11,06,11,03,7.30
2020,11,06,11,04,7.30
2020,11,06,11,05,7.30
2020,11,06,11,06,7.30
2020,11,06,11,07,7.30
2020,11,06,11,08,7.40
2020,11,06,11,09,7.40
2020,11,06,11,10,7.40
2020,11,06,11,11,7.50
2020,11,06,11,12,7.50
2020,11,06,11,13,7.50
2020,11,06,11,14,7.50
2020,11,06,11,15,7.50
2020,11,06,11,16,7.50
2020,11,06,11,17,7.60
2020,11,06,11,18,7.60
2020,11,06,11,19,7.60
2020,11,06,11,20,7.60
2020,11,06,11,21,7.50
2020,11,06,11,22,7.60
2020,11,06,11,23,7.60
2020,11,06,11,24,7.70
2020,11,06,11,25,7.70
2020,11,06,11,26,7.60
2020,11,06,11,27,7.70
2020,11,06,11,28,7.70
2020,11,06,11,29,7.70
2020,11,06,11,30,7.80
2020,11,06,11,31,7.80
2020,11,06,11,32,7.80
2020,11,06,11,33,7.90
2020,11,06,11,34,7.90
2020,11,06,11,35,7.90
2020,11,06,11,36,7.90
2020,11,06,11,37,7.90
2020,11,06,11,38,7.90
2020,11,06,11,39,7.90
2020,11,06,11,40,7.90
2020,11,06,11,41,8.00
2020,11,06,11,42,8.00
2020,11,06,11,43,8.00
2020,11,06,11,44,8.10
2020,11,06,11,45,8.10
2020,11,06,11,46,8.20
2020,11,06,11,47,8.20
2020,11,06,11,48,8.20
2020,11,06,11,49,8.30
2020,11,06,11,50,8.30
2020,11,06,11,51,8.30
2020,11,06,11,52,8.30
2020,11,06,11,53,8.30
2020,11,06,11,54,8.40
2020,11,06,11,55,8.40
2020,11,06,11,56,8.50
2020,11,06,11,57,8.50
2020,11,06,11,58,8.50
2020,11,06,11,59,8.50
2020,11,06,12,00,8.50
2020,11,06,12,01,8.50
2020,11,06,12,02,8.50
2020,11,06,12,03,8.60
2020,11,06,12,04,8.60
2020,11,06,12,05,8.60
2020,11,06,12,06,8.60
2020,11,06,12,07,8.60
2020,11,06,12,08,8.50
2020,11,06,12,09,8.60
2020,11,06,12,10,8.60
2020,11,06,12,11,8.50
2020,11,06,12,12,8.60
2020,11,06,12,13,8.60
2020,11,06,12,14,8.60
2020,11,06,12,15,8.60
2020,11,06,12,16,8.60
2020,11,06,12,17,8.60
2020,11,06,12,18,8.60
2020,11,06,12,19,8.60
2020,11,06,12,20,8.60
2020,11,06,12,21,8.60
2020,11,06,12,22,8.60
2020,11,06,12,23,8.70
2020,11,06,12,24,8.70
2020,11,06,12,25,8.70
2020,11,06,12,26,8.70
2020,11,06,12,27,8.60
2020,11,06,12,28,8.60
2020,11,06,12,29,8.60
2020,11,06,12,30,8.60
2020,11,06,12,31,8.70
2020,11,06,12,32,8.70
2020,11,06,12,33,8.70
2020,11,06,12,34,8.70
2020,11,06,12,35,8.80
2020,11,06,12,36,8.80
2020,11,06,12,37,8.80
2020,11,06,12,38,8.70
2020,11,06,12,39,8.70
2020,11,06,12,40,8.70
2020,11,06,12,41,8.80
2020,11,06,12,42,8.80
2020,11,06,12,43,8.80
2020,11,06,12,44,8.80
2020,11,06,12,45,8.80
2020,11,06,12,46,8.80
2020,11,06,12,47,8.80
2020,11,06,12,48,8.80
2020,11,06,12,49,8.80
2020,11,06,12,50,8.80
2020,11,06,12,51,8.80
2020,11,06,12,52,8.80
2020,11,06,12,53,8.80
2020,11,06,12,54,8.90
2020,11,06,12,55,8.80
2020,11,06,12,56,8.90
2020,11,06,12,57,8.90
2020,11,06,12,58,8.90
2020,11,06,12,59,8.90
2020,11,06,13,00,9.00
2020,11,06,13,01,9.00
2020,11,06,13,02,9.00
2020,11,06,13,03,9.00
2020,11,06,13,04,9.00
2020,11,06,13,05,9.00
2020,11,06,13,06,9.10
2020,11,06,13,07,9.10
2020,11,06,13,08,9.10
2020,11,06,13,09,9.10
2020,11,06,13,10,9.10
2020,11,06,13,11,9.10
2020,11,06,13,12,9.10
2020,11,06,13,13,9.10
2020,11,06,13,14,9.10
2020,11,06,13,15,9.10
2020,11,06,13,16,9.10
2020,11,06,13,17,9.10
2020,11,06,13,18,9.10
2020,11,06,13,19,9.00
2020,11,06,13,20,9.00
2020,11,06,13,21,9.00
2020,11,06,13,22,9.00
2020,11,06,13,23,9.00
2020,11,06,13,24,9.00
2020,11,06,13,25,9.00
2020,11,06,13,26,9.00
2020,11,06,13,27,9.10
2020,11,06,13,28,9.10
2020,11,06,13,29,9.10
2020,11,06,13,30,9.10
2020,11,06,13,31,9.10
2020,11,06,13,32,9.10
2020,11,06,13,33,9.10
2020,11,06,13,34,9.10
2020,11,06,13,35,9.10
2020,11,06,13,36,9.10
2020,11,06,13,37,9.20
2020,11,06,13,38,9.20
2020,11,06,13,39,9.20
2020,11,06,13,40,9.20
2020,11,06,13,41,9.20
2020,11,06,13,42,9.20
2020,11,06,13,43,9.20
2020,11,06,13,44,9.20
2020,11,06,13,45,9.20
2020,11,06,13,46,9.20
2020,11,06,13,47,9.30
2020,11,06,13,48,9.30
2020,11,06,13,49,9.30
2020,11,06,13,50,9.30
2020,11,06,13,51,9.40
2020,11,06,13,52,9.40
2020,11,06,13,53,9.40
2020,11,06,13,54,9.40
2020,11,06,13,55,9.50
2020,11,06,13,56,9.50
2020,11,06,13,57,9.60
2020,11,06,13,58,9.60
2020,11,06,13,59,9.60
2020,11,06,14,00,9.60
2020,11,06,14,01,9.60
2020,11,06,14,02,9.70
2020,11,06,14,03,9.60
2020,11,06,14,04,9.50
2020,11,06,14,05,9.40
2020,11,06,14,06,9.40
2020,11,06,14,07,9.30
2020,11,06,14,08,9.30
2020,11,06,14,09,9.30
2020,11,06,14,10,9.20
2020,11,06,14,11,9.20
2020,11,06,14,12,9.20
2020,11,06,14,13,9.20
2020,11,06,14,14,9.20
2020,11,06,14,15,9.20
2020,11,06,14,16,9.10
2020,11,06,14,17,9.10
2020,11,06,14,18,9.10
2020,11,06,14,19,9.10
2020,11,06,14,20,9.10
2020,11,06,14,21,9.10
2020,11,06,14,22,9.10
2020,11,06,14,23,9.10
2020,11,06,14,24,9.10
2020,11,06,14,25,9.10
2020,11,06,14,26,9.10
2020,11,06,14,27,9.10
2020,11,06,14,28,9.10
2020,11,06,14,29,9.10
2020,11,06,14,30,9.10
2020,11,06,14,31,9.10
2020,11,06,14,32,9.10
2020,11,06,14,33,9.10
2020,11,06,14,34,9.00
2020,11,06,14,35,9.00
2020,11,06,14,36,9.00
2020,11,06,14,37,9.00
2020,11,06,14,38,9.00
2020,11,06,14,39,9.00
2020,11,06,14,40,9.00
2020,11,06,14,41,9.00
2020,11,06,14,42,9.00
2020,11,06,14,43,9.00
2020,11,06,14,44,9.00
2020,11,06,14,45,8.90
2020,11,06,14,46,8.90
2020,11,06,14,47,8.90
2020,11,06,14,48,8.90
2020,11,06,14,49,8.80
2020,11,06,14,50,8.80
2020,11,06,14,51,8.80
2020,11,06,14,52,8.80
2020,11,06,14,53,8.80
2020,11,06,14,54,8.80
2020,11,06,14,55,8.80
2020,11,06,14,56,8.80
2020,11,06,14,57,8.80
2020,11,06,14,58,8.80
2020,11,06,14,59,8.80
2020,11,06,15,00,8.70
2020,11,06,15,01,8.70
2020,11,06,15,02,8.70
2020,11,06,15,03,8.70
2020,11,06,15,04,8.70
2020,11,06,15,05,8.70
2020,11,06,15,06,8.60
2020,11,06,15,07,8.60
2020,11,06,15,08,8.60
2020,11,06,15,09,8.60
2020,11,06,15,10,8.60
2020,11,06,15,11,8.60
2020,11,06,15,12,8.60
2020,11,06,15,13,8.60
2020,11,06,15,14,8.50
2020,11,06,15,15,8.50
2020,11,06,15,16,8.50
2020,11,06,15,17,8.50
2020,11,06,15,18,8.50
2020,11,06,15,19,8.40
2020,11,06,15,20,8.40
2020,11,06,15,21,8.40
2020,11,06,15,22,8.40
2020,11,06,15,23,8.40
2020,11,06,15,24,8.30
2020,11,06,15,25,8.40
2020,11,06,15,26,8.30
2020,11,06,15,27,8.30
2020,11,06,15,28,8.30
2020,11,06,15,29,8.30
2020,11,06,15,30,8.30
2020,11,06,15,31,8.20
2020,11,06,15,32,8.20
2020,11,06,15,33,8.20
2020,11,06,15,34,8.20
2020,11,06,15,35,8.20
2020,11,06,15,36,8.20
2020,11,06,15,37,8.20
2020,11,06,15,38,8.20
2020,11,06,15,39,8.10
2020,11,06,15,40,8.10
2020,11,06,15,41,8.00
2020,11,06,15,42,8.00
2020,11,06,15,43,8.00
2020,11,06,15,44,8.00
2020,11,06,15,45,8.00
2020,11,06,15,46,8.00
2020,11,06,15,47,7.90
2020,11,06,15,48,7.90
2020,11,06,15,49,7.90
2020,11,06,15,50,7.90
2020,11,06,15,51,7.80
2020,11,06,15,52,7.80
2020,11,06,15,53,7.80
2020,11,06,15,54,7.80
2020,11,06,15,55,7.80
2020,11,06,15,56,7.80
2020,11,06,15,57,7.70
2020,11,06,15,58,7.70
2020,11,06,15,59,7.70
2020,11,06,16,00,7.60
2020,11,06,16,01,7.60
2020,11,06,16,02,7.60
2020,11,06,16,03,7.60
2020,11,06,16,04,7.60
2020,11,06,16,05,7.60
2020,11,06,16,06,7.60
2020,11,06,16,07,7.60
2020,11,06,16,08,7.60
2020,11,06,16,09,7.60
2020,11,06,16,10,7.60
2020,11,06,16,11,7.50
2020,11,06,16,12,7.50
2020,11,06,16,13,7.50
2020,11,06,16,14,7.50
2020,11,06,16,15,7.50
2020,11,06,16,16,7.50
2020,11,06,16,17,7.40
2020,11,06,16,18,7.40
2020,11,06,16,19,7.40
2020,11,06,16,20,7.40
2020,11,06,16,21,7.40
2020,11,06,16,22,7.30
2020,11,06,16,23,7.30
2020,11,06,16,24,7.30
2020,11,06,16,25,7.30
2020,11,06,16,26,7.30
2020,11,06,16,27,7.20
2020,11,06,16,28,7.20
2020,11,06,16,29,7.20
2020,11,06,16,30,7.10
2020,11,06,16,31,7.10
2020,11,06,16,32,7.00
2020,11,06,16,33,7.00
2020,11,06,16,34,7.00
2020,11,06,16,35,6.90
2020,11,06,16,36,6.90
2020,11,06,16,37,6.90
2020,11,06,16,38,6.80
2020,11,06,16,39,6.80
2020,11,06,16,40,6.80
2020,11,06,16,41,6.70
2020,11,06,16,42,6.70
2020,11,06,16,43,6.70
2020,11,06,16,44,6.70
2020,11,06,16,45,6.70
2020,11,06,16,46,6.60
2020,11,06,16,47,6.60
2020,11,06,16,48,6.60
2020,11,06,16,49,6.60
2020,11,06,16,50,6.60
2020,11,06,16,51,6.60
2020,11,06,16,52,6.60
2020,11,06,16,53,6.50
2020,11,06,16,54,6.50
2020,11,06,16,55,6.40
2020,11,06,16,56,6.40
2020,11,06,16,57,6.40
2020,11,06,16,58,6.40
2020,11,06,16,59,6.40
2020,11,06,17,00,6.30
2020,11,06,17,01,6.30
2020,11,06,17,02,6.30
2020,11,06,17,03,6.30
2020,11,06,17,04,6.30
2020,11,06,17,05,6.30
2020,11,06,17,06,6.20
2020,11,06,17,07,6.20
2020,11,06,17,08,6.20
2020,11,06,17,09,6.20
2020,11,06,17,10,6.10
2020,11,06,17,11,6.10
2020,11,06,17,12,6.10
2020,11,06,17,13,6.10
2020,11,06,17,14,6.10
2020,11,06,17,15,6.00
2020,11,06,17,16,6.00
2020,11,06,17,17,6.00
2020,11,06,17,18,5.90
2020,11,06,17,19,5.90
2020,11,06,17,20,5.90
2020,11,06,17,21,5.90
2020,11,06,17,22,5.90
2020,11,06,17,23,5.90
2020,11,06,17,24,5.90
2020,11,06,17,25,5.80
2020,11,06,17,26,5.80
2020,11,06,17,27,5.80
2020,11,06,17,28,5.80
2020,11,06,17,29,5.80
2020,11,06,17,30,5.80
2020,11,06,17,31,5.80
2020,11,06,17,32,5.80
2020,11,06,17,33,5.80
2020,11,06,17,34,5.80
2020,11,06,17,35,5.80
2020,11,06,17,36,5.80
2020,11,06,17,37,5.80
2020,11,06,17,38,5.80
2020,11,06,17,39,5.80
2020,11,06,17,40,5.70
2020,11,06,17,41,5.70
2020,11,06,17,42,5.70
2020,11,06,17,43,5.70
2020,11,06,17,44,5.70
2020,11,06,17,45,5.70
2020,11,06,17,46,5.70
2020,11,06,17,47,5.70
2020,11,06,17,48,5.70
2020,11,06,17,49,5.70
2020,11,06,17,50,5.60
2020,11,06,17,51,5.60
2020,11,06,17,52,5.60
2020,11,06,17,53,5.60
2020,11,06,17,54,5.60
2020,11,06,17,55,5.60
2020,11,06,17,56,5.60
2020,11,06,17,57,5.60
2020,11,06,17,58,5.50
2020,11,06,17,59,5.50
2020,11,06,18,00,5.50
2020,11,06,18,01,5.50
2020,11,06,18,02,5.50
2020,11,06,18,03,5.50
2020,11,06,18,04,5.50
2020,11,06,18,05,5.40
2020,11,06,18,06,5.40